Home > Time Zones > World Clock > Weather > U.S.A. > Bend > Past weeks

Flag for U.S.A. Weather past 2 weeks in Bend, Oregon, U.S.A.

Now
22 °F

Clear.


Feels Like: 17 °F
Forecast: 23 / 41 °F
Wind: 3 mph from Southeast

Location: Roberts Field Airport

Current Time: Dec 27, 2014 at 3:04:15 AM

Latest Report: Dec 27, 2014 at 1:56 AM


Visibility: 10 mi

Pressure: 30.34 "Hg

Humidity: 89%

Dew point: 19 °F

Location of BendLocation

Historic Weather in Bend — Graph

°F

Bend temperature yesterday

Maximum temperature yesterday: 41 °F (at 1:56 PM)
Minimum temperature yesterday: 21 °F (at 7:56 AM)
Average temperature yesterday: 29 °F

Past Weeks' High & Low Weather Summary

 TemperatureHumidityPressure
High54 °F (Dec 23, 1:56 PM)100% (Dec 12, 5:03 PM)30.38 "Hg (Dec 12, 5:03 PM)
Low20 °F (Dec 14, 7:56 AM)49% (Dec 14, 12:56 PM)29.63 "Hg (Dec 12, 1:56 AM)
Average36 °F86%30.03 "Hg
* Reported Dec 12 1:56 AM — Dec 27 1:56 AM, Bend, Weather by CustomWeather, © 2014

Note: Actual official high and low records may vary slightly from our data, if they occured in-between our weather recording intervals... More about our weather records

Advertising

Bend weather history for previous 24 hours

 ConditionsComfort  
Time TempWeatherWind HumidityBarometerVisibility
1:56 AM
Dec 27
22 °FClear.3 mph89%30.34 "Hg10 mi
12:56 AM24 °FClear.7 mph84%30.34 "Hg10 mi
11:56 PM
Dec 26
23 °FClear.5 mph88%30.36 "Hg10 mi
10:56 PM25 °FClear.5 mph85%30.36 "Hg10 mi
9:56 PM26 °FClear.6 mph84%30.37 "Hg10 mi
8:56 PM27 °FClear.7 mph85%30.37 "Hg10 mi
7:56 PM28 °FClear.3 mph85%30.38 "Hg10 mi
6:56 PM28 °FPassing clouds.7 mph85%30.36 "Hg10 mi
5:56 PM29 °FPassing clouds.3 mph89%30.35 "Hg10 mi
4:56 PM31 °FClear.3 mph79%30.34 "Hg10 mi
3:56 PM39 °FSunny.3 mph57%30.32 "Hg10 mi
2:56 PM41 °FSunny.No wind53%30.31 "Hg10 mi
1:56 PM41 °FSunny.No wind53%30.31 "Hg10 mi
12:56 PM40 °FSunny.3 mph60%30.31 "Hg10 mi
11:56 AM38 °FSunny.No wind65%30.34 "Hg10 mi
10:56 AM36 °FSunny.3 mph70%30.33 "Hg10 mi
9:56 AM32 °FSunny.3 mph79%30.33 "Hg10 mi
8:56 AM26 °FSunny.3 mph88%30.32 "Hg10 mi
7:56 AM21 °FSunny.5 mph92%30.32 "Hg10 mi
6:56 AM22 °FClear.3 mph92%30.30 "Hg10 mi
5:56 AM23 °FClear.5 mph92%30.29 "Hg10 mi
4:56 AM22 °FClear.5 mph96%30.28 "Hg10 mi
3:56 AM24 °FPassing clouds.3 mph91%30.27 "Hg10 mi
Weather by CustomWeather, © 2014

See weather overviewHow to use our weather pages